Regional Weather Roundup
Issued by NWS

Current Version | Previous Version | Text Only | Print | Product List | Glossary On
Versions: 1 2 3 4 5 6 7 8 9 10 11 12 13 14 15 16 17 18 19 20 21 22 23 24 25 26 27 28 29 30 31 32 33 34 35 36 37 38 39 40 41 42 43 44 45 46 47 48 49 50
000
ASCA42 TJSJ 180411
RWRPR
PUERTO RICO/U.S. VIRGIN ISLANDS HOURLY WEATHER ROUNDUP
NATIONAL WEATHER SERVICE SAN JUAN PR
1200 AM AST THU SEP 18 2014

PRZ001-004-180500-
PUERTO RICO

CITY           SKY/WX    TMP DP  RH WIND       PRES   REMARKS
SAN JUAN LMM   PTCLDY    82  75  78 NE8       29.97F
PONCE          CLEAR     77  72  83 CALM      29.93
CEIBA          MOCLDY    81  73  78 SE5       30.00S
$$

PRZ006-007-180500-
U.S. VIRGIN ISLANDS

CITY           SKY/WX    TMP DP  RH WIND       PRES   REMARKS
CHARLOTTE AMA  CLEAR     81  73  78 E3        29.97S
CHRISTIANSTED  CLEAR     79  73  83 NE3       29.97F
$$

HOURLY WEATHER ROUNDUP FOR THE NEWS MEDIA

CITY           SKY/WX    TMP DP  RH WIND       PRES   REMARKS
MIAMI          CLOUDY    80  71  74 W6        29.96F
ORLANDO        CLEAR     77  72  84 CALM      29.94R
NEW YORK       PTCLDY    61  52  72 SW7       29.99S
NEWARK         CLEAR     60  52  74 W3        29.98S
CHICAGO        CLEAR     61  48  62 CALM      30.03R
HARTFORD       CLEAR     50  47  89 CALM      29.96F
BOSTON         CLEAR     58  48  69 SW5       29.96F
DALLAS         CLOUDY    83  69  62 SE12      29.90R
PHILADELPHIA   PTCLDY    63  52  67 SW3       29.99S



USA.gov is the U.S. government's official web portal to all federal, state and local government web resources and services.